Cahokia, IL

12:30 AM CDT on September 20, 2019 (GMT -0500)
Saint Louis Downtown

Weather History for KCPS - August, 2019

Change the Weather History Date:

Sunday, August 25, 2019

  Actual Average Record
Temperature  
Mean Temperature 70 °F -  
Max Temperature 73 °F 83 °F 98 °F (2003)
Min Temperature 66 °F 65 °F 55 °F (2015)
Cooling Degree Days 4    
Growing Degree Days 20 (Base 50)    
Moisture  
Dew Point 65 °F    
Average Humidity 86    
Maximum Humidity 96    
Minimum Humidity 68    
Precipitation  
Precipitation 0.82 in - - ()
Sea Level Pressure  
Sea Level Pressure 29.95 in    
Wind  
Wind Speed 4 mph (ESE)    
Max Wind Speed 10 mph    
Max Gust Speed -    
Visibility 8 miles    
Events Rain    
Averages and records for this station are not official NWS values.
T = Trace of Precipitation, MM = Missing Value Source: NWS Daily Summary

Daily Weather History Graph

Daily Weather History Graph

Search for Another Location

Airport or City:

Astronomy

Aug. 25, 2019 Rise Set
Actual Time 6:23 AM CDT 7:41 PM CDT
Civil Twilight 5:55 AM CDT 8:08 PM CDT
Nautical Twilight 5:22 AM CDT 8:41 PM CDT
Astronomical Twilight 4:48 AM CDT 9:16 PM CDT
Moon 1:00 AM CDT (8/25) 3:59 PM CDT (8/25)
Length of Visible Light 14h 12m
Length of Day
13h 17m
Waning Crescent, 29% of the Moon is Illuminated
Aug 25
Waning Crescent
Aug 30
New
Sep 5
First Quarter
Sep 13
Full
Sep 21
Last Quarter

Hourly Weather History & Observations

Time (CDT) Temp. Dew Point Humidity Pressure Visibility Wind Dir Wind Speed Gust Speed Precip Events Conditions
12:53 AM 68.0 °F 60.1 °F 76% 30.06 in 10.0 mi East 3.5 mph - N/A   Overcast
1:53 AM 68.0 °F 60.1 °F 76% 30.04 in 10.0 mi Calm Calm - N/A   Scattered Clouds
2:53 AM 68.0 °F 59.0 °F 73% 30.03 in 10.0 mi ESE 3.5 mph - N/A   Overcast
3:53 AM 68.0 °F 57.9 °F 70% 30.02 in 10.0 mi East 4.6 mph - N/A   Overcast
4:53 AM 66.9 °F 59.0 °F 76% 30.01 in 10.0 mi ESE 3.5 mph - N/A   Overcast
5:53 AM 66.9 °F 59.0 °F 76% 30.01 in 10.0 mi Calm Calm - N/A   Overcast
6:53 AM 66.0 °F 61.0 °F 84% 30.01 in 10.0 mi Calm Calm - 0.00 in   Mostly Cloudy
7:53 AM 66.9 °F 60.1 °F 79% 30.01 in 10.0 mi East 4.6 mph - 0.00 in   Scattered Clouds
8:53 AM 69.1 °F 60.1 °F 73% 30.01 in 10.0 mi ESE 6.9 mph - 0.00 in   Mostly Cloudy
9:53 AM 71.1 °F 60.1 °F 68% 30.00 in 10.0 mi East 6.9 mph - N/A   Overcast
10:53 AM 73.0 °F 62.1 °F 68% 30.00 in 10.0 mi ESE 5.8 mph - N/A   Overcast
11:53 AM 70.0 °F 62.1 °F 76% 29.99 in 10.0 mi SE 9.2 mph - N/A   Overcast
12:16 PM 66.0 °F 63.0 °F 90% 29.99 in 2.0 mi East 8.1 mph - 0.30 in Rain Heavy Rain
12:25 PM 66.0 °F 64.0 °F 93% 29.98 in 3.0 mi ESE 8.1 mph - 0.35 in Rain Heavy Rain
12:31 PM 66.0 °F 64.0 °F 93% 29.99 in 3.0 mi ESE 6.9 mph - 0.36 in Rain Light Rain
12:36 PM 66.0 °F 64.0 °F 93% 29.99 in 5.0 mi East 3.5 mph - 0.37 in Rain Light Rain
12:41 PM 66.0 °F 64.0 °F 93% 29.99 in 2.0 mi ESE 3.5 mph - 0.37 in Rain Light Rain
12:44 PM 66.0 °F 64.0 °F 93% 29.99 in 2.0 mi Variable 4.6 mph - 0.38 in Rain Light Rain
12:53 PM 66.0 °F 64.9 °F 96% 29.98 in 3.0 mi Calm Calm - 0.39 in Rain Light Rain
1:53 PM 68.0 °F 66.0 °F 93% 29.96 in 10.0 mi East 5.8 mph - 0.03 in   Overcast
2:27 PM 68.0 °F 66.0 °F 93% 29.95 in 1.8 mi East 3.5 mph - 0.10 in Rain Heavy Rain
2:53 PM 68.0 °F 66.0 °F 93% 29.93 in 4.0 mi ESE 4.6 mph - 0.17 in Rain Heavy Rain
3:07 PM 68.0 °F 66.0 °F 93% 29.94 in 2.0 mi East 4.6 mph - 0.06 in Rain Heavy Rain
3:53 PM 70.0 °F 66.9 °F 90% 29.91 in 2.0 mi ESE 8.1 mph - 0.07 in   Overcast
4:00 PM 70.0 °F 66.9 °F 90% 29.91 in 10.0 mi ESE 6.9 mph - N/A   Overcast
4:44 PM 71.1 °F 66.9 °F 87% 29.90 in 10.0 mi ESE 10.4 mph - N/A   Overcast
4:53 PM 71.1 °F 66.9 °F 87% 29.88 in 10.0 mi ESE 10.4 mph - N/A   Overcast
5:53 PM 71.1 °F 68.0 °F 90% 29.88 in 10.0 mi SE 6.9 mph - N/A   Overcast
6:03 PM 71.1 °F 68.0 °F 90% 29.88 in 10.0 mi ESE 8.1 mph - N/A   Overcast
6:43 PM 71.1 °F 68.0 °F 90% 29.88 in 10.0 mi ESE 4.6 mph - N/A   Overcast
6:53 PM 71.1 °F 68.0 °F 90% 29.87 in 10.0 mi ESE 4.6 mph - N/A   Overcast
7:25 PM 71.1 °F 68.0 °F 90% 29.88 in 10.0 mi ESE 4.6 mph - N/A   Overcast
7:35 PM 71.1 °F 69.1 °F 93% 29.88 in 10.0 mi East 3.5 mph - N/A   Overcast
7:53 PM 71.1 °F 68.0 °F 90% 29.87 in 10.0 mi ESE 3.5 mph - N/A   Overcast
8:38 PM 71.1 °F 69.1 °F 93% 29.88 in 10.0 mi East 3.5 mph - N/A   Overcast
8:53 PM 71.1 °F 69.1 °F 93% 29.87 in 10.0 mi East 3.5 mph - N/A   Overcast
9:53 PM 72.0 °F 70.0 °F 93% 29.87 in 3.0 mi SE 5.8 mph - 0.13 in Rain Rain
10:53 PM 72.0 °F 70.0 °F 93% 29.85 in 10.0 mi SSE 5.8 mph - 0.03 in   Overcast
11:53 PM 72.0 °F 70.0 °F 93% 29.83 in 10.0 mi SSE 8.1 mph - N/A   Overcast